FENGYUN 1C DEB

基本信息
目录编号:
31327
目录名称:
FENGYUN 1C DEB
国际标识:
1999-025BQF
轨道中心:
EARTH
物体状态:
在轨
发射日期:
1999-05-10 UTC
轨道信息
数据来源: 国际轨道数据
星历时间: 2026-09-04T10:37:50+0800
半长轴: 6870.69km
偏心率: 0.0064685
轨道倾角: 98.959°
近地点辐角: 201.599°
升交点赤经: 302.558°
平近点角: 158.251°
近地点: 448.109km
远地点: 536.997km
周期: 94.463分钟
每日圈数: 15.244118
详细信息
发射场:
TSC
轨道高度:
LEO
数据来源:
AOE Integration Group
参考系:
TEME
时间系统:
UTC
历元类型:
SGP4
2D轨道图
3D轨道图
轨道高度分析图
轨道倾角分析图
轨道综合分析图
查看轨道综合分析图